Location: Baia Mare
(47.6567°N, 23.5850°E)
Time: 22:09:46
(UTC+03:00)

ISS - Pass Details

Date: 31 March 2020
Orbit: 418 x 423 km, 51.6° (Epoch: 11 April)

Event Time Altitude Azimuth Distance (km) Brightness Sun altitude
Rises 19:31:48 0° 281° (W) 2,364 2.7 3.0°
Reaches altitude 10° 19:33:59 10° 289° (WNW) 1,500 0.9 2.6°
Drops below altitude 10° 19:40:23 10° 72° (ENE) 1,501 -1.5 1.5°
Enters shadow 19:42:59 -1° 81° (E) 2,537 -0.4 1.1°
Exits shadow 20:19:00 -77° 105° (ESE) 12,851 3.7 -4.9°
Maximum altitude 21:14:20 70° 20° (NNE) 448 -3.7 -13.7°
